Content
SEND FEEDBACK

Daily
Averages
Monthly
Summary
United States of America

STATEN ISLAND, NEW YORK


Home > North America > United States > New York
Elevation: 152 feet     Latitude: 40 35N     Longitude: 074 09W

WEATHER
 
SELECT A DAY
Number of Records: 193,189;   Date Range: 1/1/95 - 11/22/14
 
SHARE

PRINT THIS DATA

[ ← Previous Day ]
WEATHER ALMANAC - JANUARY 23, 2013
[ Next Day → ]
[ °C ]   °F
Weather ElementAverageHighLow
Temperature15.6 °F19.9 °F (11:51 am)10.9 °F (5:51 am)
Dewpoint-3.9 °F1 °F (11:51 pm)-8 °F (1:51 am)
Humidity42.6 %54 % (11:51 pm)32 % (11:51 am)
Barometer30.22 in30.27 in (9:51 am)30.18 in (1:51 pm)
Wind Speed10.6 mph17.3 mph (2:51 pm)
Wind Gust21.9 mph (2:51 pm)
Weather ElementAverage
Visibility10 mi
Wind DirectionWNW (284.8 °)

Weather ElementTotal
Precipitation---
Heating Degree Days49.6 (Base 65)
Averaged from 23 records on January 23, 2013
WEATHER CONDITIONS BREAKOUT
WIND DIRECTION BREAKOUT
WEATHER BY HOUR - JANUARY 23, 2013
[ °C ]   °F
Local TimeTemperatureDewpointHumidityBarometerVisibilityWind DirectionWind SpeedGust SpeedPrecipitationEventsConditions
1:51 AM12.9 °F-8.0 °F39 %30.22 in10.0 miWest (270°)11.5 mphClear
2:51 AM12.0 °F-7.1 °F42 %30.23 in10.0 miWest (270°)10.4 mph18.4 mphPartly Cloudy
3:51 AM12.0 °F-6.0 °F44 %30.23 in10.0 miWest (270°)8.1 mphPartly Cloudy
4:51 AM12.0 °F-5.1 °F46 %30.23 in10.0 miWest (270°)9.2 mphClear
5:51 AM10.9 °F-4.0 °F51 %30.24 in10.0 miWest (270°)10.4 mphClear
6:51 AM10.9 °F-4.0 °F51 %30.24 in10.0 miWest (270°)11.5 mphScattered Clouds
7:51 AM12.0 °F-2.9 °F51 %30.25 in10.0 miWest (270°)11.5 mphScattered Clouds
8:51 AM14.0 °F-2.0 °F49 %30.26 in10.0 miWest (270°)12.7 mphScattered Clouds
9:51 AM16.0 °F-2.0 °F45 %30.27 in10.0 miWest (270°)11.5 mphPartly Cloudy
10:51 AM18.0 °F-5.1 °F36 %30.25 in10.0 miNW (310°)15.0 mph20.7 mphScattered Clouds
11:51 AM19.9 °F-6.0 °F32 %30.22 in10.0 miNW (320°)12.7 mph17.3 mphMostly Cloudy
12:51 PM19.9 °F-6.0 °F32 %30.19 in10.0 miWNW (300°)13.8 mphMostly Cloudy
1:51 PM19.9 °F-4.0 °F35 %30.18 in10.0 miWNW (290°)11.5 mphMostly Cloudy
2:51 PM19.4 °F-5.8 °F33 %30.18 in10.0 miWest (270°)17.3 mph21.9 mphScattered Clouds
3:51 PM19.4 °F-5.8 °F33 %30.18 in10.0 miWNW (300°)15.0 mph20.7 mphScattered Clouds
4:51 PM18.0 °F-6.0 °F35 %30.19 in10.0 miNW (310°)11.5 mphScattered Clouds
5:51 PM17.1 °F-6.0 °F36 %30.20 in10.0 miWest (280°)12.7 mphPartly Cloudy
6:51 PM17.1 °F-4.0 °F39 %30.22 in10.0 miWNW (300°)8.1 mphPartly Cloudy
7:51 PM16.0 °F-2.0 °F45 %30.21 in10.0 miNW (310°)5.8 mphPartly Cloudy
8:51 PM16.0 °F0.0 °F49 %30.20 in10.0 miWNW (300°)8.1 mphPartly Cloudy
9:51 PM15.1 °F0.0 °F51 %30.21 in10.0 miWest (270°)5.8 mphPartly Cloudy
10:51 PM15.1 °F0.0 °F51 %30.21 in10.0 miWest (280°)4.6 mphMostly Cloudy
11:51 PM15.1 °F1.0 °F54 %30.20 in10.0 miWest (280°)4.6 mphOvercast
Hourly data recorded from KEWR, located miles away from Staten Island, New York







STORIES FROM OUR PARTNERS